Regional Weather Roundup
Issued by NWS

Home | Current Version | Previous Version | Graphics & Text | Print | Product List | Glossary On
Versions: 1 2 3 4 5 6 7 8 9 10 11 12 13 14 15 16 17 18 19 20 21 22 23 24 25 26 27 28 29 30 31 32 33 34 35 36 37 38 39 40 41 42 43 44 45 46 47 48 49 50
000
ASUS43 KDMX 210301
RWRIA

WEATHER ROUNDUP FOR IOWA
NATIONAL WEATHER SERVICE DES MOINES IA
900 PM CST FRI JAN 20 2017

NOTE: "FAIR" INDICATES FEW OR NO CLOUDS BELOW 12,000 FEET WITH NO
SIGNIFICANT WEATHER AND/OR OBSTRUCTIONS TO VISIBILITY.

* - THESE STATIONS ARE NOT NWS STATIONS...THUS NOT UNDER NWS
QUALITY CONTROL.  THEY ALSO DO NOT REPORT WEATHER SUCH
AS PRECIPITATION OR FOG.

IAZ001>003-012>014-020>022-031>034-043>046-210400-
   NORTHWEST IOWA

CITY           SKY/WX    TMP DP  RH WIND       PRES   REMARKS
CARROLL *      FOG       37  37 100 E9        29.47F VSB 1/4 WCI  31
CHEROKEE *     DRIZZLE   37  37 100 E6        29.46F WCI  32
DENISON *      MIX PCPN  39  39 100 SE9       29.43F WCI  33
LE MARS *      CLOUDY    39  39 100 SE10      29.45S WCI  32
ORANGE CITY *  FOG       37  37 100 SE6       29.45R VSB 1/2 WCI  33
SHELDON *      CLOUDY    36  36 100 SE9       29.44S FOG     WCI  29
SIOUX CITY     CLOUDY    40  39  97 SE7       29.44S
SPENCER        CLOUDY    36  36 100 E6        29.48S FOG     WCI  31
STORM LAKE *   FOG       36  36 100 SE10      29.46F VSB<1/4 WCI  28
$$

IAZ055>058-069>071-079>083-090>094-210400-
   SOUTHWEST IOWA

CITY           SKY/WX    TMP DP  RH WIND       PRES   REMARKS
ATLANTIC *     CLOUDY    41  41 100 CALM      29.46S FOG
AUDUBON *      LGT RAIN  39  37  93 E6        29.47F WCI  35
CLARINDA *     FOG       43  43 100 CALM      29.46F VSB 1/4
COUNCIL BLFS * FOG       39  39 100 SE6       29.44F VSB 1/4 WCI  35
CRESTON *      FOG       41  41 100 E9        29.47F VSB 1/4
HARLAN  *      CLOUDY    39  39 100 SE5       29.49S
LAMONI         FOG       44  44 100 E6        29.47S VSB 1/4
RED OAK *      FOG       41  41 100 SE7G13    29.45F VSB 3/4
SHENANDOAH *   FOG       43  41  93 E5        29.45F VSB 1/4
$$

IAZ047>049-059>061-072>074-084-210400-
   CENTRAL IOWA

CITY           SKY/WX    TMP DP  RH WIND       PRES   REMARKS
AMES           FOG       37  37 100 E6        29.51F VSB 1/4 WCI  32
ANKENY *       CLOUDY    39  39 100 E6        29.51F FOG     WCI  35
BOONE *        FOG       37  37 100 E8        29.49F VSB 1/4 WCI  31
CHARITON *     MIX PCPN  41  41 100 SE10      29.49S VSB 1/2
DES MOINES     DRZL/FOG  41  40  96 E9        29.49F VSB 1/2
GRINNELL*      SNOW      37  37  99 E7        29.53F VSB 1/4 WCI  32
KNOXVILLE *    FOG       41  41 100 E8        29.49F VSB 1/2
MARSHALLTOWN   FOG       37  37 100 E8        29.53R VSB 1/4 WCI  31
NEWTON *       FOG       39  39 100 E8        29.51F VSB 3/4 WCI  34
PELLA *        DRIZZLE   40  40  99 E6        29.53F
PERRY *        LGT RAIN  38  37  98 E7        29.49F VSB 1   WCI  33
$$

IAZ004>006-015-016-023>025-035-036-210400-
   NORTH CENTRAL IOWA

CITY           SKY/WX    TMP DP  RH WIND       PRES   REMARKS
ALGONA *       CLOUDY    36  36 100 SE9       29.50R FOG     WCI  29
CLARION *      FOG       36  36 100 SE9       29.52R VSB 1/4 WCI  29
ESTHERVILLE    FOG       33  33 100 E8        29.48F VSB 1/2 WCI  26
FORT DODGE *   CLOUDY    36  34  93 E7        29.51F VSB 1/2 WCI  30
MASON CITY     FOG       34  34 100 E8        29.54F VSB 1/4 WCI  27
FOREST CITY *  FOG       34  34 100 E8        29.52F VSB 1/4 WCI  27
WEBSTER CITY * FOG       36 N/A N/A E9        29.49F VSB<1/4 WCI  29
IOWA FALLS *   FOG       37  36  97 SE8       29.54R VSB 1/4 WCI  30
$$

IAZ007>011-017>019-026>030-037>042-050>054-066-210400-
   NORTHEAST IOWA

CITY           SKY/WX    TMP DP  RH WIND       PRES   REMARKS
CEDAR RAPIDS   FOG       38  38 100 E7        29.55F VSB 1/2 WCI  33
CHARLES CITY * FOG       36  36 100 SE9       29.55S VSB<1/4 WCI  29
CLINTON *      LGT RAIN  39  39 100 E6        29.60R VSB 1/4 WCI  35
DECORAH *      FOG       36  36 100 SE6       29.57R VSB<1/4 WCI  31
DUBUQUE        FOG       37  37 100 E3        29.59R VSB 1/4
MONTICELLO *   FOG       39  39 100 E5        29.58S VSB<1/4
OELWEIN *      FOG       36  36 100 E13       29.56F VSB 1/4 WCI  27
WATERLOO       FOG       37  37 100 SE10      29.55S VSB 1/2 WCI  30
$$

IAZ064-065-067-068-078-210400-
   EAST CENTRAL IOWA

CITY           SKY/WX    TMP DP  RH WIND       PRES   REMARKS
DAVENPORT      FOG       41  41 100 SE8       29.59R VSB 1/4
IOWA CITY      FOG       42  41  96 E3        29.57F VSB 1/2
MUSCATINE *    FOG       43  43 100 NE5       29.57F VSB 1/4
QUAD CITIES    FOG       42  40  92 E5        29.58R VSB 1/4
$$

IAZ062-063-075>077-085>089-095>099-210400-
   SOUTHEAST IOWA

CITY           SKY/WX    TMP DP  RH WIND       PRES   REMARKS
BURLINGTON     CLOUDY    45  45 100 SE9       29.55R FOG
FAIRFIELD *    FOG       43  43 100 SE8       29.53F VSB 1/4
FORT MADISON * FOG       46  46 100 SE7       29.55F VSB 1
KEOKUK *       CLOUDY    46 N/A N/A SE9       29.53F FOG
OSKALOOSA *    FOG       40  40  99 E8        29.52F VSB 3/4 WCI  35
OTTUMWA        FOG       41  40  96 E7        29.51F VSB 1/4
WASHINGTON *   FOG       41  41 100 E6        29.55F VSB<1/4
$$

ABBREVIATIONS USED IN REMARKS
   TC - TEMPERATURES IN CELSIUS
  WCI - WIND CHILL INDEX
   HX - HEAT INDEX
  VSB - VISIBILITY
$$





USA.gov is the U.S. government's official web portal to all federal, state and local government web resources and services.